User: anonymous   Login
Location: Unspecified
(0.0000°N, 0.0000°E)
Time: 04:45:59
(UTC+00:00)
Language:

NTS 1 - Orbit

View from above orbital plane
View from above orbital plane
View from above satellite
View from above satellite

Ground track
Ground track

The orbit data is extracted from the following two-line orbital elements,

1  7369U 74054A   18266.94822848 +.00000092 +00000-0 +00000-0 0  9994
2  7369 125.0830 303.1833 0075536 268.4630 081.9240 03.07214600495872
Epoch (UTC): 23 September 2018 22:45:26
Eccentricity: 0.0075536
inclination: 125.0830°
perigee height: 13459 km
apogee height: 13761 km
right ascension of ascending node: 303.1833°
argument of perigee: 268.4630°
revolutions per day: 3.07214600
mean anomaly at epoch: 81.9240°
orbit number at epoch: 49587

The dashed part of the orbit path shows where the satellite is in the earth's shadow,  

DLR